Tracking 19476 objects as of 17-Jan-2019
HD Live streaming from Space Station
objects crossing your sky now

NAVSTAR 38 (USA 126)

Track NAVSTAR 38 (USA 126) now!
NAVSTAR 38 (USA 126) is classified as:


NORAD ID: 23953
Int'l Code: 1996-041A
Perigee: 21,156.0 km
Apogee: 21,427.1 km
Inclination: 54.1 °
Period: 763.1 minutes
Semi major axis: 27662 km
RCS: 6.3095 m2 (large)
Launch date: July 16, 1996
Source: United States (US)
Launch site: AIR FORCE EASTERN TEST RANGE (AFETR)
aabbcc
Your satellite tracking list
Your tracking list is empty




NASA's NSSDC Master Catalog

Two Line Element Set (TLE):
1 23953U 96041A   19015.08673757  .00000032  00000-0  00000+0 0  9995
2 23953  54.1039 142.0861 0049004  61.5654 216.4000  1.88696631163643
Source of the keplerian elements: AFSPC